owner,sensor,date,latitude,longitude,vertical_datum,wind_speed,wind_to_direction,wind_speed_of_gust,qcFlag 
TCOON,ioos:station:TCOON:057:1,2013-11-01T00:00:00Z,28.4460,-96.3961,0.0,3.6,102.0,3.9,'11111222,11111222,11111222' 
TCOON,ioos:station:TCOON:057:1,2013-11-01T00:06:00Z,28.4460,-96.3961,0.0,3.2,99.0,3.7,'11111222,11111222,11111222' 
TCOON,ioos:station:TCOON:057:1,2013-11-01T00:12:00Z,28.4460,-96.3961,0.0,3.3,99.0,3.8,'11111222,11111222,11111222' 
TCOON,ioos:station:TCOON:057:1,2013-11-01T00:18:00Z,28.4460,-96.3961,0.0,3.2,96.0,4.0,'11111222,11111222,11111222' 
TCOON,ioos:station:TCOON:057:1,2013-11-01T00:24:00Z,28.4460,-96.3961,0.0,3.2,82.0,3.6,'11111222,11111222,11111222' 
TCOON,ioos:station:TCOON:057:1,2013-11-01T00:30:00Z,28.4460,-96.3961,0.0,3.1,84.0,3.6,'11111222,11111222,11111222' 
TCOON,ioos:station:TCOON:057:1,2013-11-01T00:36:00Z,28.4460,-96.3961,0.0,3.1,80.0,3.6,'1111122,1111122,1111122' 
TCOON,ioos:station:TCOON:057:1,2013-11-01T00:42:00Z,28.4460,-96.3961,0.0,3.8,83.0,4.3,'11111222,11111222,11111222' 
TCOON,ioos:station:TCOON:057:1,2013-11-01T00:48:00Z,28.4460,-96.3961,0.0,3.3,82.0,3.7,'11111222,11111222,11111222' 
TCOON,ioos:station:TCOON:057:1,2013-11-01T00:54:00Z,28.4460,-96.3961,0.0,3.6,80.0,4.1,'1111122,1111122,1111122' 
TCOON,ioos:station:TCOON:057:1,2013-11-01T01:00:00Z,28.4460,-96.3961,0.0,3.4,85.0,4.0,'11111222,11111222,11111222' 
TCOON,ioos:station:TCOON:057:1,2013-11-01T01:06:00Z,28.4460,-96.3961,0.0,3.7,90.0,4.0,'11111222,11111222,11111222' 
TCOON,ioos:station:TCOON:057:1,2013-11-01T01:12:00Z,28.4460,-96.3961,0.0,3.5,92.0,5.1,'11111222,11111222,11111222' 
TCOON,ioos:station:TCOON:057:1,2013-11-01T01:18:00Z,28.4460,-96.3961,0.0,3.2,82.0,3.8,'11111222,11111222,11111222' 
TCOON,ioos:station:TCOON:057:1,2013-11-01T01:24:00Z,28.4460,-96.3961,0.0,3.3,69.0,4.0,'11111222,11111222,11111222' 
TCOON,ioos:station:TCOON:057:1,2013-11-01T01:30:00Z,28.4460,-96.3961,0.0,3.1,75.0,3.8,'11111222,11111222,11111222' 
TCOON,ioos:station:TCOON:057:1,2013-11-01T01:36:00Z,28.4460,-96.3961,0.0,3.2,79.0,3.5,'11111222,11111222,11111222' 
TCOON,ioos:station:TCOON:057:1,2013-11-01T01:42:00Z,28.4460,-96.3961,0.0,3.6,81.0,4.0,'11111222,11111222,11111222' 
TCOON,ioos:station:TCOON:057:1,2013-11-01T01:48:00Z,28.4460,-96.3961,0.0,3.6,70.0,4.1,'1111122,1111122,1111122' 
TCOON,ioos:station:TCOON:057:1,2013-11-01T01:54:00Z,28.4460,-96.3961,0.0,3.5,69.0,3.9,'11111222,11111222,11111222' 
TCOON,ioos:station:TCOON:057:1,2013-11-01T02:00:00Z,28.4460,-96.3961,0.0,3.9,70.0,4.6,'11111222,11111222,11111222' 
TCOON,ioos:station:TCOON:057:1,2013-11-01T02:06:00Z,28.4460,-96.3961,0.0,4.0,87.0,4.5,'11111222,11111222,11111222' 
TCOON,ioos:station:TCOON:057:1,2013-11-01T02:12:00Z,28.4460,-96.3961,0.0,3.5,89.0,4.0,'11111222,11111222,11111222' 
TCOON,ioos:station:TCOON:057:1,2013-11-01T02:18:00Z,28.4460,-96.3961,0.0,3.1,77.0,4.0,'11111222,11111222,11111222' 
TCOON,ioos:station:TCOON:057:1,2013-11-01T02:24:00Z,28.4460,-96.3961,0.0,3.6,84.0,4.2,'11111222,11111222,11111222' 
TCOON,ioos:station:TCOON:057:1,2013-11-01T02:30:00Z,28.4460,-96.3961,0.0,3.9,90.0,4.6,'11111222,11111222,11111222' 
TCOON,ioos:station:TCOON:057:1,2013-11-01T02:36:00Z,28.4460,-96.3961,0.0,3.6,90.0,4.1,'1111122,1111122,1111122' 
TCOON,ioos:station:TCOON:057:1,2013-11-01T02:42:00Z,28.4460,-96.3961,0.0,3.5,91.0,4.5,'11111222,11111222,11111222' 
TCOON,ioos:station:TCOON:057:1,2013-11-01T02:48:00Z,28.4460,-96.3961,0.0,3.1,85.0,4.0,'11111222,11111222,11111222' 
TCOON,ioos:station:TCOON:057:1,2013-11-01T02:54:00Z,28.4460,-96.3961,0.0,3.4,77.0,3.8,'11111222,11111222,11111222' 
TCOON,ioos:station:TCOON:057:1,2013-11-01T03:00:00Z,28.4460,-96.3961,0.0,2.9,83.0,3.6,'11111222,11111222,11111222' 
TCOON,ioos:station:TCOON:057:1,2013-11-01T03:06:00Z,28.4460,-96.3961,0.0,3.3,84.0,3.9,'11111222,11111222,11111222' 
TCOON,ioos:station:TCOON:057:1,2013-11-01T03:12:00Z,28.4460,-96.3961,0.0,3.4,75.0,4.1,'11111222,11111222,11111222' 
TCOON,ioos:station:TCOON:057:1,2013-11-01T03:18:00Z,28.4460,-96.3961,0.0,3.2,86.0,3.8,'11111222,11111222,11111222' 
TCOON,ioos:station:TCOON:057:1,2013-11-01T03:24:00Z,28.4460,-96.3961,0.0,2.9,82.0,3.6,'11111222,11111222,11111222' 
TCOON,ioos:station:TCOON:057:1,2013-11-01T03:30:00Z,28.4460,-96.3961,0.0,3.1,84.0,3.7,'11111222,11111222,11111222' 
TCOON,ioos:station:TCOON:057:1,2013-11-01T03:36:00Z,28.4460,-96.3961,0.0,3.1,82.0,3.5,'11111222,11111222,11111222' 
TCOON,ioos:station:TCOON:057:1,2013-11-01T03:42:00Z,28.4460,-96.3961,0.0,3.0,75.0,3.9,'11111222,11111222,11111222' 
TCOON,ioos:station:TCOON:057:1,2013-11-01T03:48:00Z,28.4460,-96.3961,0.0,3.1,90.0,3.6,'1111122,1111122,1111122' 
TCOON,ioos:station:TCOON:057:1,2013-11-01T03:54:00Z,28.4460,-96.3961,0.0,3.5,80.0,4.0,'11111222,11111222,11111222' 
TCOON,ioos:station:TCOON:057:1,2013-11-01T04:00:00Z,28.4460,-96.3961,0.0,3.1,83.0,3.9,'11111222,11111222,11111222' 
TCOON,ioos:station:TCOON:057:1,2013-11-01T04:06:00Z,28.4460,-96.3961,0.0,3.3,88.0,3.6,'11111222,11111222,11111222' 
TCOON,ioos:station:TCOON:057:1,2013-11-01T04:12:00Z,28.4460,-96.3961,0.0,3.3,79.0,3.5,'11111222,11111222,11111222' 
TCOON,ioos:station:TCOON:057:1,2013-11-01T04:18:00Z,28.4460,-96.3961,0.0,2.8,94.0,3.5,'11111222,11111222,11111222' 
TCOON,ioos:station:TCOON:057:1,2013-11-01T04:24:00Z,28.4460,-96.3961,0.0,3.1,90.0,3.6,'1111122,1111122,1111122' 
TCOON,ioos:station:TCOON:057:1,2013-11-01T04:30:00Z,28.4460,-96.3961,0.0,3.5,82.0,3.9,'11111222,11111222,11111222' 
TCOON,ioos:station:TCOON:057:1,2013-11-01T04:36:00Z,28.4460,-96.3961,0.0,3.0,78.0,3.6,'11111222,11111222,11111222' 
TCOON,ioos:station:TCOON:057:1,2013-11-01T04:42:00Z,28.4460,-96.3961,0.0,3.3,83.0,3.6,'11111222,11111222,11111222' 
TCOON,ioos:station:TCOON:057:1,2013-11-01T04:48:00Z,28.4460,-96.3961,0.0,3.5,84.0,3.9,'11111222,11111222,11111222' 
TCOON,ioos:station:TCOON:057:1,2013-11-01T04:54:00Z,28.4460,-96.3961,0.0,4.0,80.0,4.3,'11111222,11111222,11111222' 
TCOON,ioos:station:TCOON:057:1,2013-11-01T05:00:00Z,28.4460,-96.3961,0.0,4.3,78.0,4.7,'11111222,11111222,11111222' 
TCOON,ioos:station:TCOON:057:1,2013-11-01T05:06:00Z,28.4460,-96.3961,0.0,4.4,82.0,5.2,'11111222,11111222,11111222' 
TCOON,ioos:station:TCOON:057:1,2013-11-01T05:12:00Z,28.4460,-96.3961,0.0,4.1,84.0,4.8,'11111222,11111222,11111222' 
TCOON,ioos:station:TCOON:057:1,2013-11-01T05:18:00Z,28.4460,-96.3961,0.0,4.5,83.0,4.9,'11111222,11111222,11111222' 
TCOON,ioos:station:TCOON:057:1,2013-11-01T05:24:00Z,28.4460,-96.3961,0.0,4.3,77.0,5.0,'11111222,11111222,11111222' 
TCOON,ioos:station:TCOON:057:1,2013-11-01T05:30:00Z,28.4460,-96.3961,0.0,4.2,75.0,4.9,'11111222,11111222,11111222' 
TCOON,ioos:station:TCOON:057:1,2013-11-01T05:36:00Z,28.4460,-96.3961,0.0,4.6,70.0,5.1,'1111122,1111122,1111122' 
TCOON,ioos:station:TCOON:057:1,2013-11-01T05:42:00Z,28.4460,-96.3961,0.0,4.4,70.0,5.2,'11111222,11111222,11111222' 
TCOON,ioos:station:TCOON:057:1,2013-11-01T05:48:00Z,28.4460,-96.3961,0.0,4.6,70.0,5.1,'1111122,1111122,1111122' 
TCOON,ioos:station:TCOON:057:1,2013-11-01T05:54:00Z,28.4460,-96.3961,0.0,4.3,77.0,5.1,'11111222,11111222,11111222' 
TCOON,ioos:station:TCOON:057:1,2013-11-01T06:00:00Z,28.4460,-96.3961,0.0,4.0,74.0,4.9,'11111222,11111222,11111222' 
TCOON,ioos:station:TCOON:057:1,2013-11-01T06:06:00Z,28.4460,-96.3961,0.0,4.2,75.0,5.0,'11111222,11111222,11111222' 
TCOON,ioos:station:TCOON:057:1,2013-11-01T06:12:00Z,28.4460,-96.3961,0.0,4.3,75.0,5.1,'11111222,11111222,11111222' 
TCOON,ioos:station:TCOON:057:1,2013-11-01T06:18:00Z,28.4460,-96.3961,0.0,4.1,82.0,5.0,'11111222,11111222,11111222' 
TCOON,ioos:station:TCOON:057:1,2013-11-01T06:24:00Z,28.4460,-96.3961,0.0,4.3,82.0,5.3,'11111222,11111222,11111222' 
TCOON,ioos:station:TCOON:057:1,2013-11-01T06:30:00Z,28.4460,-96.3961,0.0,4.5,74.0,5.7,'11111222,11111222,11111222' 
TCOON,ioos:station:TCOON:057:1,2013-11-01T06:36:00Z,28.4460,-96.3961,0.0,4.7,67.0,5.2,'11111222,11111222,11111222' 
TCOON,ioos:station:TCOON:057:1,2013-11-01T06:42:00Z,28.4460,-96.3961,0.0,4.6,60.0,5.1,'1111122,1111122,1111122' 
TCOON,ioos:station:TCOON:057:1,2013-11-01T06:48:00Z,28.4460,-96.3961,0.0,4.4,75.0,5.8,'11111222,11111222,11111222' 
TCOON,ioos:station:TCOON:057:1,2013-11-01T06:54:00Z,28.4460,-96.3961,0.0,5.2,64.0,5.9,'11111222,11111222,11111222' 
TCOON,ioos:station:TCOON:057:1,2013-11-01T07:00:00Z,28.4460,-96.3961,0.0,4.4,75.0,5.5,'11111222,11111222,11111222' 
TCOON,ioos:station:TCOON:057:1,2013-11-01T07:06:00Z,28.4460,-96.3961,0.0,4.6,68.0,5.4,'11111222,11111222,11111222' 
TCOON,ioos:station:TCOON:057:1,2013-11-01T07:12:00Z,28.4460,-96.3961,0.0,4.3,71.0,5.1,'11111222,11111222,11111222' 
TCOON,ioos:station:TCOON:057:1,2013-11-01T07:18:00Z,28.4460,-96.3961,0.0,4.4,77.0,5.2,'11111222,11111222,11111222' 
TCOON,ioos:station:TCOON:057:1,2013-11-01T07:24:00Z,28.4460,-96.3961,0.0,4.6,77.0,5.7,'11111222,11111222,11111222' 
TCOON,ioos:station:TCOON:057:1,2013-11-01T07:30:00Z,28.4460,-96.3961,0.0,4.1,75.0,5.2,'11111222,11111222,11111222' 
TCOON,ioos:station:TCOON:057:1,2013-11-01T07:36:00Z,28.4460,-96.3961,0.0,4.7,75.0,5.1,'11111222,11111222,11111222' 
TCOON,ioos:station:TCOON:057:1,2013-11-01T07:42:00Z,28.4460,-96.3961,0.0,4.5,75.0,5.3,'11111222,11111222,11111222' 
TCOON,ioos:station:TCOON:057:1,2013-11-01T07:48:00Z,28.4460,-96.3961,0.0,4.6,80.0,5.1,'1111122,1111122,1111122' 
TCOON,ioos:station:TCOON:057:1,2013-11-01T07:54:00Z,28.4460,-96.3961,0.0,4.2,74.0,5.2,'11111222,11111222,11111222' 
TCOON,ioos:station:TCOON:057:1,2013-11-01T08:00:00Z,28.4460,-96.3961,0.0,4.6,80.0,5.3,'11111222,11111222,11111222' 
TCOON,ioos:station:TCOON:057:1,2013-11-01T08:06:00Z,28.4460,-96.3961,0.0,4.7,69.0,5.3,'11111222,11111222,11111222' 
TCOON,ioos:station:TCOON:057:1,2013-11-01T08:12:00Z,28.4460,-96.3961,0.0,4.7,70.0,5.3,'11111222,11111222,11111222' 
TCOON,ioos:station:TCOON:057:1,2013-11-01T08:18:00Z,28.4460,-96.3961,0.0,4.4,67.0,5.4,'11111222,11111222,11111222' 
TCOON,ioos:station:TCOON:057:1,2013-11-01T08:24:00Z,28.4460,-96.3961,0.0,4.7,65.0,5.4,'11111222,11111222,11111222' 
TCOON,ioos:station:TCOON:057:1,2013-11-01T08:30:00Z,28.4460,-96.3961,0.0,5.1,65.0,5.5,'11111222,11111222,11111222' 
TCOON,ioos:station:TCOON:057:1,2013-11-01T08:36:00Z,28.4460,-96.3961,0.0,4.6,70.0,5.7,'1111122,1111122,1111122' 
TCOON,ioos:station:TCOON:057:1,2013-11-01T08:42:00Z,28.4460,-96.3961,0.0,4.9,69.0,5.3,'11111222,11111222,11111222' 
TCOON,ioos:station:TCOON:057:1,2013-11-01T08:48:00Z,28.4460,-96.3961,0.0,4.6,70.0,5.7,'1111122,1111122,1111122' 
TCOON,ioos:station:TCOON:057:1,2013-11-01T08:54:00Z,28.4460,-96.3961,0.0,4.6,72.0,5.2,'11111222,11111222,11111222' 
TCOON,ioos:station:TCOON:057:1,2013-11-01T09:00:00Z,28.4460,-96.3961,0.0,4.9,80.0,5.7,'11111222,11111222,11111222' 
TCOON,ioos:station:TCOON:057:1,2013-11-01T09:06:00Z,28.4460,-96.3961,0.0,4.8,91.0,5.2,'11111222,11111222,11111222' 
TCOON,ioos:station:TCOON:057:1,2013-11-01T09:12:00Z,28.4460,-96.3961,0.0,4.1,92.0,5.2,'11111222,11111222,11111222' 
TCOON,ioos:station:TCOON:057:1,2013-11-01T09:18:00Z,28.4460,-96.3961,0.0,4.5,88.0,5.1,'11111222,11111222,11111222' 
TCOON,ioos:station:TCOON:057:1,2013-11-01T09:24:00Z,28.4460,-96.3961,0.0,4.6,83.0,5.1,'11111222,11111222,11111222' 
TCOON,ioos:station:TCOON:057:1,2013-11-01T09:30:00Z,28.4460,-96.3961,0.0,4.4,85.0,5.4,'11111222,11111222,11111222' 
TCOON,ioos:station:TCOON:057:1,2013-11-01T09:36:00Z,28.4460,-96.3961,0.0,4.0,91.0,4.5,'11111222,11111222,11111222' 
TCOON,ioos:station:TCOON:057:1,2013-11-01T09:42:00Z,28.4460,-96.3961,0.0,4.0,102.0,4.6,'11111222,11111222,11111222' 
TCOON,ioos:station:TCOON:057:1,2013-11-01T09:48:00Z,28.4460,-96.3961,0.0,4.2,95.0,4.9,'11111222,11111222,11111222' 
TCOON,ioos:station:TCOON:057:1,2013-11-01T09:54:00Z,28.4460,-96.3961,0.0,4.4,95.0,4.8,'11111222,11111222,11111222' 
TCOON,ioos:station:TCOON:057:1,2013-11-01T10:00:00Z,28.4460,-96.3961,0.0,4.4,100.0,5.0,'11111222,11111222,11111222' 
TCOON,ioos:station:TCOON:057:1,2013-11-01T10:06:00Z,28.4460,-96.3961,0.0,4.5,99.0,5.2,'11111222,11111222,11111222' 
TCOON,ioos:station:TCOON:057:1,2013-11-01T10:12:00Z,28.4460,-96.3961,0.0,4.8,101.0,5.7,'11111222,11111222,11111222' 
TCOON,ioos:station:TCOON:057:1,2013-11-01T10:18:00Z,28.4460,-96.3961,0.0,4.4,99.0,5.5,'11111222,11111222,11111222' 
TCOON,ioos:station:TCOON:057:1,2013-11-01T10:24:00Z,28.4460,-96.3961,0.0,4.8,97.0,5.4,'11111222,11111222,11111222' 
TCOON,ioos:station:TCOON:057:1,2013-11-01T10:30:00Z,28.4460,-96.3961,0.0,5.2,104.0,5.7,'11111222,11111222,11111222' 
TCOON,ioos:station:TCOON:057:1,2013-11-01T10:36:00Z,28.4460,-96.3961,0.0,5.1,110.0,6.2,'1111122,1111122,1111122' 
TCOON,ioos:station:TCOON:057:1,2013-11-01T10:42:00Z,28.4460,-96.3961,0.0,5.2,112.0,5.8,'11111222,11111222,11111222' 
TCOON,ioos:station:TCOON:057:1,2013-11-01T10:48:00Z,28.4460,-96.3961,0.0,4.9,116.0,5.9,'11111222,11111222,11111222' 
TCOON,ioos:station:TCOON:057:1,2013-11-01T10:54:00Z,28.4460,-96.3961,0.0,5.1,120.0,5.7,'1111122,1111122,1111122' 
TCOON,ioos:station:TCOON:057:1,2013-11-01T11:00:00Z,28.4460,-96.3961,0.0,4.9,117.0,5.9,'11111222,11111222,11111222' 
TCOON,ioos:station:TCOON:057:1,2013-11-01T11:06:00Z,28.4460,-96.3961,0.0,5.0,107.0,5.8,'11111222,11111222,11111222' 
TCOON,ioos:station:TCOON:057:1,2013-11-01T11:12:00Z,28.4460,-96.3961,0.0,5.3,103.0,6.0,'11111222,11111222,11111222' 
TCOON,ioos:station:TCOON:057:1,2013-11-01T11:18:00Z,28.4460,-96.3961,0.0,5.0,109.0,5.9,'11111222,11111222,11111222' 
TCOON,ioos:station:TCOON:057:1,2013-11-01T11:24:00Z,28.4460,-96.3961,0.0,5.0,118.0,5.5,'11111222,11111222,11111222' 
TCOON,ioos:station:TCOON:057:1,2013-11-01T11:30:00Z,28.4460,-96.3961,0.0,5.0,113.0,5.7,'11111222,11111222,11111222' 
TCOON,ioos:station:TCOON:057:1,2013-11-01T11:36:00Z,28.4460,-96.3961,0.0,5.1,110.0,5.8,'11111222,11111222,11111222' 
TCOON,ioos:station:TCOON:057:1,2013-11-01T11:42:00Z,28.4460,-96.3961,0.0,4.6,110.0,5.7,'1111122,1111122,1111122' 
TCOON,ioos:station:TCOON:057:1,2013-11-01T11:48:00Z,28.4460,-96.3961,0.0,4.6,108.0,5.5,'11111222,11111222,11111222' 
TCOON,ioos:station:TCOON:057:1,2013-11-01T11:54:00Z,28.4460,-96.3961,0.0,5.4,103.0,6.1,'11111222,11111222,11111222' 
TCOON,ioos:station:TCOON:057:1,2013-11-01T12:00:00Z,28.4460,-96.3961,0.0,5.1,103.0,6.0,'11111222,11111222,11111222' 
TCOON,ioos:station:TCOON:057:1,2013-11-01T12:06:00Z,28.4460,-96.3961,0.0,4.7,114.0,5.5,'11111222,11111222,11111222' 
TCOON,ioos:station:TCOON:057:1,2013-11-01T12:12:00Z,28.4460,-96.3961,0.0,4.9,105.0,5.7,'11111222,11111222,11111222' 
TCOON,ioos:station:TCOON:057:1,2013-11-01T12:18:00Z,28.4460,-96.3961,0.0,5.1,111.0,5.7,'11111222,11111222,11111222' 
TCOON,ioos:station:TCOON:057:1,2013-11-01T12:24:00Z,28.4460,-96.3961,0.0,5.1,110.0,5.7,'1111122,1111122,1111122' 
TCOON,ioos:station:TCOON:057:1,2013-11-01T12:30:00Z,28.4460,-96.3961,0.0,4.5,115.0,5.4,'11111222,11111222,11111222' 
TCOON,ioos:station:TCOON:057:1,2013-11-01T12:36:00Z,28.4460,-96.3961,0.0,4.7,102.0,5.6,'11111222,11111222,11111222' 
TCOON,ioos:station:TCOON:057:1,2013-11-01T12:42:00Z,28.4460,-96.3961,0.0,4.9,103.0,5.8,'11111222,11111222,11111222' 
TCOON,ioos:station:TCOON:057:1,2013-11-01T12:48:00Z,28.4460,-96.3961,0.0,4.6,100.0,6.2,'1111122,1111122,1111122' 
TCOON,ioos:station:TCOON:057:1,2013-11-01T12:54:00Z,28.4460,-96.3961,0.0,4.5,98.0,5.0,'11111222,11111222,11111222' 
TCOON,ioos:station:TCOON:057:1,2013-11-01T13:00:00Z,28.4460,-96.3961,0.0,4.1,89.0,5.1,'11111222,11111222,11111222' 
TCOON,ioos:station:TCOON:057:1,2013-11-01T13:06:00Z,28.4460,-96.3961,0.0,3.9,88.0,4.6,'11111222,11111222,11111222' 
TCOON,ioos:station:TCOON:057:1,2013-11-01T13:12:00Z,28.4460,-96.3961,0.0,3.9,97.0,4.4,'11111222,11111222,11111222' 
TCOON,ioos:station:TCOON:057:1,2013-11-01T13:18:00Z,28.4460,-96.3961,0.0,3.9,101.0,4.5,'11111222,11111222,11111222' 
TCOON,ioos:station:TCOON:057:1,2013-11-01T13:24:00Z,28.4460,-96.3961,0.0,4.0,98.0,4.5,'11111222,11111222,11111222' 
TCOON,ioos:station:TCOON:057:1,2013-11-01T13:30:00Z,28.4460,-96.3961,0.0,4.2,95.0,4.8,'11111222,11111222,11111222' 
TCOON,ioos:station:TCOON:057:1,2013-11-01T13:36:00Z,28.4460,-96.3961,0.0,4.6,100.0,5.1,'1111122,1111122,1111122' 
TCOON,ioos:station:TCOON:057:1,2013-11-01T13:42:00Z,28.4460,-96.3961,0.0,5.4,92.0,5.9,'11111222,11111222,11111222' 
TCOON,ioos:station:TCOON:057:1,2013-11-01T13:48:00Z,28.4460,-96.3961,0.0,5.7,90.0,6.2,'1111122,1111122,1111122' 
TCOON,ioos:station:TCOON:057:1,2013-11-01T13:54:00Z,28.4460,-96.3961,0.0,5.3,92.0,6.2,'11111222,11111222,11111222' 
TCOON,ioos:station:TCOON:057:1,2013-11-01T14:00:00Z,28.4460,-96.3961,0.0,5.6,96.0,6.5,'11111222,11111222,11111222' 
TCOON,ioos:station:TCOON:057:1,2013-11-01T14:06:00Z,28.4460,-96.3961,0.0,5.2,98.0,6.2,'11111222,11111222,11111222' 
TCOON,ioos:station:TCOON:057:1,2013-11-01T14:12:00Z,28.4460,-96.3961,0.0,5.4,104.0,6.0,'11111222,11111222,11111222' 
TCOON,ioos:station:TCOON:057:1,2013-11-01T14:18:00Z,28.4460,-96.3961,0.0,4.7,102.0,6.4,'11111222,11111222,11111222' 
TCOON,ioos:station:TCOON:057:1,2013-11-01T14:24:00Z,28.4460,-96.3961,0.0,5.5,105.0,6.1,'11111222,11111222,11111222' 
TCOON,ioos:station:TCOON:057:1,2013-11-01T14:30:00Z,28.4460,-96.3961,0.0,5.6,110.0,6.2,'11111222,11111222,11111222' 
TCOON,ioos:station:TCOON:057:1,2013-11-01T14:36:00Z,28.4460,-96.3961,0.0,5.7,120.0,6.2,'1111122,1111122,1111122' 
TCOON,ioos:station:TCOON:057:1,2013-11-01T14:42:00Z,28.4460,-96.3961,0.0,5.9,104.0,6.5,'11111222,11111222,11111222' 
TCOON,ioos:station:TCOON:057:1,2013-11-01T14:48:00Z,28.4460,-96.3961,0.0,5.3,109.0,6.5,'11111222,11111222,11111222' 
TCOON,ioos:station:TCOON:057:1,2013-11-01T14:54:00Z,28.4460,-96.3961,0.0,5.1,110.0,6.2,'1111122,1111122,1111122' 
TCOON,ioos:station:TCOON:057:1,2013-11-01T15:00:00Z,28.4460,-96.3961,0.0,4.8,102.0,6.1,'11111222,11111222,11111222' 
TCOON,ioos:station:TCOON:057:1,2013-11-01T15:06:00Z,28.4460,-96.3961,0.0,4.3,105.0,6.0,'11111222,11111222,11111222' 
TCOON,ioos:station:TCOON:057:1,2013-11-01T15:12:00Z,28.4460,-96.3961,0.0,5.1,105.0,5.9,'11111222,11111222,11111222' 
TCOON,ioos:station:TCOON:057:1,2013-11-01T15:18:00Z,28.4460,-96.3961,0.0,5.2,103.0,5.7,'11111222,11111222,11111222' 
TCOON,ioos:station:TCOON:057:1,2013-11-01T15:24:00Z,28.4460,-96.3961,0.0,5.0,113.0,6.0,'11111222,11111222,11111222' 
TCOON,ioos:station:TCOON:057:1,2013-11-01T15:30:00Z,28.4460,-96.3961,0.0,5.5,105.0,6.2,'11111222,11111222,11111222' 
TCOON,ioos:station:TCOON:057:1,2013-11-01T15:36:00Z,28.4460,-96.3961,0.0,5.2,107.0,6.6,'11111222,11111222,11111222' 
TCOON,ioos:station:TCOON:057:1,2013-11-01T15:42:00Z,28.4460,-96.3961,0.0,5.1,107.0,5.7,'11111222,11111222,11111222' 
TCOON,ioos:station:TCOON:057:1,2013-11-01T15:48:00Z,28.4460,-96.3961,0.0,4.6,110.0,5.7,'1111122,1111122,1111122' 
TCOON,ioos:station:TCOON:057:1,2013-11-01T15:54:00Z,28.4460,-96.3961,0.0,5.4,108.0,5.9,'11111222,11111222,11111222' 
TCOON,ioos:station:TCOON:057:1,2013-11-01T16:00:00Z,28.4460,-96.3961,0.0,5.1,106.0,6.0,'11111222,11111222,11111222' 
TCOON,ioos:station:TCOON:057:1,2013-11-01T16:06:00Z,28.4460,-96.3961,0.0,5.0,121.0,6.0,'11111222,11111222,11111222' 
TCOON,ioos:station:TCOON:057:1,2013-11-01T16:12:00Z,28.4460,-96.3961,0.0,5.4,113.0,6.5,'11111222,11111222,11111222' 
TCOON,ioos:station:TCOON:057:1,2013-11-01T16:18:00Z,28.4460,-96.3961,0.0,5.2,126.0,6.6,'11111222,11111222,11111222' 
TCOON,ioos:station:TCOON:057:1,2013-11-01T16:24:00Z,28.4460,-96.3961,0.0,5.9,117.0,6.5,'11111222,11111222,11111222' 
TCOON,ioos:station:TCOON:057:1,2013-11-01T16:30:00Z,28.4460,-96.3961,0.0,5.1,122.0,6.8,'11111222,11111222,11111222' 
TCOON,ioos:station:TCOON:057:1,2013-11-01T16:36:00Z,28.4460,-96.3961,0.0,5.3,133.0,6.1,'11111222,11111222,11111222' 
TCOON,ioos:station:TCOON:057:1,2013-11-01T16:42:00Z,28.4460,-96.3961,0.0,5.3,120.0,6.7,'11111222,11111222,11111222' 
TCOON,ioos:station:TCOON:057:1,2013-11-01T16:48:00Z,28.4460,-96.3961,0.0,5.7,130.0,6.7,'1111122,1111122,1111122' 
TCOON,ioos:station:TCOON:057:1,2013-11-01T16:54:00Z,28.4460,-96.3961,0.0,5.7,131.0,6.4,'11111222,11111222,11111222' 
TCOON,ioos:station:TCOON:057:1,2013-11-01T17:00:00Z,28.4460,-96.3961,0.0,5.5,129.0,6.5,'11111222,11111222,11111222' 
TCOON,ioos:station:TCOON:057:1,2013-11-01T17:06:00Z,28.4460,-96.3961,0.0,5.7,134.0,6.7,'11111222,11111222,11111222' 
TCOON,ioos:station:TCOON:057:1,2013-11-01T17:12:00Z,28.4460,-96.3961,0.0,5.9,130.0,7.4,'11111222,11111222,11111222' 
TCOON,ioos:station:TCOON:057:1,2013-11-01T17:18:00Z,28.4460,-96.3961,0.0,6.1,125.0,7.1,'11111222,11111222,11111222' 
TCOON,ioos:station:TCOON:057:1,2013-11-01T17:24:00Z,28.4460,-96.3961,0.0,5.1,120.0,7.2,'1111122,1111122,1111122' 
TCOON,ioos:station:TCOON:057:1,2013-11-01T17:30:00Z,28.4460,-96.3961,0.0,5.5,129.0,6.7,'11111222,11111222,11111222' 
TCOON,ioos:station:TCOON:057:1,2013-11-01T17:36:00Z,28.4460,-96.3961,0.0,6.1,122.0,7.0,'11111222,11111222,11111222' 
TCOON,ioos:station:TCOON:057:1,2013-11-01T17:42:00Z,28.4460,-96.3961,0.0,5.6,122.0,6.5,'11111222,11111222,11111222' 
TCOON,ioos:station:TCOON:057:1,2013-11-01T17:48:00Z,28.4460,-96.3961,0.0,5.7,130.0,6.7,'1111122,1111122,1111122' 
TCOON,ioos:station:TCOON:057:1,2013-11-01T17:54:00Z,28.4460,-96.3961,0.0,5.4,133.0,6.9,'11111222,11111222,11111222' 
TCOON,ioos:station:TCOON:057:1,2013-11-01T18:00:00Z,28.4460,-96.3961,0.0,5.1,131.0,7.2,'11111222,11111222,11111222' 
TCOON,ioos:station:TCOON:057:1,2013-11-01T18:06:00Z,28.4460,-96.3961,0.0,5.7,137.0,6.4,'11111222,11111222,11111222' 
TCOON,ioos:station:TCOON:057:1,2013-11-01T18:12:00Z,28.4460,-96.3961,0.0,5.2,127.0,6.3,'11111222,11111222,11111222' 
TCOON,ioos:station:TCOON:057:1,2013-11-01T18:18:00Z,28.4460,-96.3961,0.0,5.2,134.0,6.8,'11111222,11111222,11111222' 
TCOON,ioos:station:TCOON:057:1,2013-11-01T18:24:00Z,28.4460,-96.3961,0.0,5.3,135.0,6.1,'11111222,11111222,11111222' 
TCOON,ioos:station:TCOON:057:1,2013-11-01T18:30:00Z,28.4460,-96.3961,0.0,5.2,135.0,6.2,'11111222,11111222,11111222' 
TCOON,ioos:station:TCOON:057:1,2013-11-01T18:36:00Z,28.4460,-96.3961,0.0,5.1,130.0,6.2,'1111122,1111122,1111122' 
TCOON,ioos:station:TCOON:057:1,2013-11-01T18:42:00Z,28.4460,-96.3961,0.0,5.7,130.0,6.7,'1111122,1111122,1111122' 
TCOON,ioos:station:TCOON:057:1,2013-11-01T18:48:00Z,28.4460,-96.3961,0.0,5.0,128.0,5.9,'11111222,11111222,11111222' 
TCOON,ioos:station:TCOON:057:1,2013-11-01T18:54:00Z,28.4460,-96.3961,0.0,5.0,137.0,5.5,'11111222,11111222,11111222' 
TCOON,ioos:station:TCOON:057:1,2013-11-01T19:00:00Z,28.4460,-96.3961,0.0,5.4,139.0,6.1,'11111222,11111222,11111222' 
TCOON,ioos:station:TCOON:057:1,2013-11-01T19:06:00Z,28.4460,-96.3961,0.0,4.8,136.0,6.0,'11111222,11111222,11111222' 
TCOON,ioos:station:TCOON:057:1,2013-11-01T19:12:00Z,28.4460,-96.3961,0.0,5.6,138.0,6.6,'11111222,11111222,11111222' 
TCOON,ioos:station:TCOON:057:1,2013-11-01T19:18:00Z,28.4460,-96.3961,0.0,6.0,132.0,6.7,'11111222,11111222,11111222' 
TCOON,ioos:station:TCOON:057:1,2013-11-01T19:24:00Z,28.4460,-96.3961,0.0,5.4,145.0,6.7,'11111222,11111222,11111222' 
TCOON,ioos:station:TCOON:057:1,2013-11-01T19:30:00Z,28.4460,-96.3961,0.0,5.7,140.0,6.7,'1111122,1111122,1111122' 
TCOON,ioos:station:TCOON:057:1,2013-11-01T19:36:00Z,28.4460,-96.3961,0.0,5.1,143.0,6.1,'11111222,11111222,11111222' 
TCOON,ioos:station:TCOON:057:1,2013-11-01T19:42:00Z,28.4460,-96.3961,0.0,4.8,144.0,6.4,'11111222,11111222,11111222' 
TCOON,ioos:station:TCOON:057:1,2013-11-01T19:48:00Z,28.4460,-96.3961,0.0,5.5,135.0,6.2,'11111222,11111222,11111222' 
TCOON,ioos:station:TCOON:057:1,2013-11-01T19:54:00Z,28.4460,-96.3961,0.0,4.9,142.0,6.0,'11111222,11111222,11111222' 
TCOON,ioos:station:TCOON:057:1,2013-11-01T20:00:00Z,28.4460,-96.3961,0.0,4.9,150.0,6.2,'11111222,11111222,11111222' 
TCOON,ioos:station:TCOON:057:1,2013-11-01T20:06:00Z,28.4460,-96.3961,0.0,5.4,148.0,6.2,'11111222,11111222,11111222' 
TCOON,ioos:station:TCOON:057:1,2013-11-01T20:12:00Z,28.4460,-96.3961,0.0,5.4,145.0,6.1,'11111222,11111222,11111222' 
TCOON,ioos:station:TCOON:057:1,2013-11-01T20:18:00Z,28.4460,-96.3961,0.0,5.1,147.0,5.9,'11111222,11111222,11111222' 
TCOON,ioos:station:TCOON:057:1,2013-11-01T20:24:00Z,28.4460,-96.3961,0.0,5.3,158.0,6.1,'11111222,11111222,11111222' 